Location: Newark
(34.1333°N, 7.9667°W)
Time: 00:35:17
(UTC+00:00)

Transit 2A - Pass Details

Date: 18 June 2021
Orbit: 598 x 960 km, 66.7° (Epoch: 24 July)

Event Time Altitude Azimuth Distance (km) Brightness Sun altitude
Rises 18:12:12 0° 253° (WSW) 2,860 9.9 17.0°
Reaches altitude 10° 18:15:45 10° 284° (WNW) 1,939 10.9 16.3°
Maximum altitude 18:17:36 12° 309° (NW) 1,779 9.5 15.9°
Drops below altitude 10° 18:19:28 10° 335° (NNW) 1,942 8.9 15.6°
Sets 18:23:02 0° 6° (N) 2,872 9.2 14.9°
